WetterOnline ( https://www.wetteronline.de )

Wetter aktuell Mutlangen

Aktuelles Wetter: Kaisersbach-Cronhütte (489m)

6-stündlich | Neueste Meldungen
Ortszeit Temperatur Wetter
Sa, 24.08. 2:00 12.0° C wolkenlos
Fr, 23.08. 20:00 20.5° C fast wolkenlos
Fr, 23.08. 14:00 22.6° C wolkenlos
Fr, 23.08. 8:00 11.1° C wolkenlos
Fr, 23.08. 2:00 9.8° C wolkenlos
Do, 22.08. 20:00 18.5° C wolkenlos
Do, 22.08. 14:00 21.3° C wolkenlos
Do, 22.08. 8:00 13.1° C wolkenlos
Ortszeit Temperatur Wetter
Sa, 24.08. 6:00 12.5° C wolkig
Sa, 24.08. 5:40 12.5° C fast wolkenlos
Sa, 24.08. 5:30 12.7° C fast wolkenlos
Sa, 24.08. 5:20 12.7° C wolkenlos
Sa, 24.08. 5:10 12.7° C wolkenlos
Sa, 24.08. 5:00 12.7° C leicht bewölkt
Sa, 24.08. 4:50 12.7° C leicht bewölkt
Sa, 24.08. 4:30 11.9° C fast wolkenlos
Sa, 24.08. 4:00 12.0° C wolkenlos
Sa, 24.08. 3:30 11.8° C wolkenlos
Sa, 24.08. 3:00 11.8° C Nebel
Ortszeit Relative Feuchte Sichtweite
Sa, 24.08. 2:00 97% 6 km
Fr, 23.08. 20:00 62% 60 km
Fr, 23.08. 14:00 48% 65 km
Fr, 23.08. 8:00 84% 17 km
Fr, 23.08. 2:00 96% 14 km
Do, 22.08. 20:00 62% 70 km
Do, 22.08. 14:00 52% 60 km
Do, 22.08. 8:00 83% 35 km
Ortszeit Relative Feuchte Sichtweite
Sa, 24.08. 6:00 97% 9 km
Sa, 24.08. 5:40 96% -
Sa, 24.08. 5:30 98% 9 km
Sa, 24.08. 5:20 98% -
Sa, 24.08. 5:10 98% -
Sa, 24.08. 5:00 99% 11 km
Sa, 24.08. 4:50 99% -
Sa, 24.08. 4:30 99% 6 km
Sa, 24.08. 4:00 98% 8 km
Sa, 24.08. 3:30 99% 7 km
Sa, 24.08. 3:00 98% 0.6 km
Ortszeit Niederschlagsmenge Niederschlagsart
Sa, 24.08. 2:00 0.0 l/m2 in 6 Std. -
Fr, 23.08. 20:00 0.0 l/m2 in 12 Std. -
Fr, 23.08. 14:00 0.0 l/m2 in 6 Std. -
Fr, 23.08. 8:00 0.0 l/m2 in 12 Std. -
Fr, 23.08. 2:00 0.0 l/m2 in 6 Std. -
Do, 22.08. 20:00 0.0 l/m2 in 12 Std. -
Do, 22.08. 14:00 0.0 l/m2 in 6 Std. -
Do, 22.08. 8:00 0.1 l/m2 in 12 Std. -
Ortszeit Niederschlagsmenge Niederschlagsart
Sa, 24.08. 6:00 0.0 l/m2 in 1 Std. -
Sa, 24.08. 5:40 keine Meldung -
Sa, 24.08. 5:30 0.0 l/m2 in 1 Std. -
Sa, 24.08. 5:20 keine Meldung -
Sa, 24.08. 5:10 keine Meldung -
Sa, 24.08. 5:00 0.0 l/m2 in 1 Std. -
Sa, 24.08. 4:50 keine Meldung -
Sa, 24.08. 4:30 0.0 l/m2 in 1 Std. -
Sa, 24.08. 4:00 0.0 l/m2 in 1 Std. -
Sa, 24.08. 3:30 0.0 l/m2 in 1 Std. -
Sa, 24.08. 3:00 0.0 l/m2 in 1 Std. -
Ortszeit Stärke Spitze Richtung
km/h Bft. km/h Grad Sektor
Sa, 24.08. 2:00 0 0 7 - -
Fr, 23.08. 20:00 4 1 29 60° NO
Fr, 23.08. 14:00 11 2 25 100° O
Fr, 23.08. 8:00 0 0 4 - -
Fr, 23.08. 2:00 2 1 7 310° NW
Do, 22.08. 20:00 2 1 26 20° N
Do, 22.08. 14:00 13 3 31 100° O
Do, 22.08. 8:00 7 2 11 60° NO
Ortszeit Stärke Spitze Richtung
km/h Bft. km/h Grad Sektor
Sa, 24.08. 6:00 4 1 7 300° NW
Sa, 24.08. 5:40 4 1 - 280° W
Sa, 24.08. 5:30 0 0 7 - -
Sa, 24.08. 5:20 2 1 - 300° NW
Sa, 24.08. 5:10 4 1 - 340° N
Sa, 24.08. 5:00 4 1 7 330° NW
Sa, 24.08. 4:50 4 1 - 330° NW
Sa, 24.08. 4:30 4 1 4 300° NW
Sa, 24.08. 4:00 2 1 4 290° W
Sa, 24.08. 3:30 4 1 4 310° NW
Sa, 24.08. 3:00 0 0 4 - -
Ortszeit Untergrenze Bedeckung Gattung
total tief tief mittel hoch
Sa, 24.08. 2:00 - 0/8 0/8 - - -
Fr, 23.08. 20:00 1410 m 1/8 1/8 - - -
Fr, 23.08. 14:00 - 0/8 0/8 - - -
Fr, 23.08. 8:00 - 0/8 0/8 - - -
Fr, 23.08. 2:00 - 0/8 0/8 - - -
Do, 22.08. 20:00 - 0/8 0/8 - - -
Do, 22.08. 14:00 - 0/8 0/8 - - -
Do, 22.08. 8:00 - 0/8 0/8 - - -
Ortszeit Bedeckungsgrad in Achtel und Wolkenuntergrenze
Sa, 24.08. 6:00 5(1260m)
Sa, 24.08. 5:40 1(1260m)
Sa, 24.08. 5:30 2(1230m)
Sa, 24.08. 5:20 keine Wolken
Sa, 24.08. 5:10 keine Wolken
Sa, 24.08. 5:00 3(1140m)
Sa, 24.08. 4:50 3(1140m)
Sa, 24.08. 4:30 1(1140m)
Sa, 24.08. 4:00 keine Wolken
Sa, 24.08. 3:30 keine Wolken
Sa, 24.08. 3:00 keine Wolken
Ortszeit Luftdruck NN (hPa) Tendenz (hPa in 3 Std.)
Sa, 24.08. 2:00 1023 - 1,0
Fr, 23.08. 20:00 1022 - 0,3
Fr, 23.08. 14:00 1023 - 1,2
Fr, 23.08. 8:00 1027 + 0,1
Fr, 23.08. 2:00 1027 - 0,3
Do, 22.08. 20:00 1024 + 0,2
Do, 22.08. 14:00 1024 - 0,5
Do, 22.08. 8:00 1026 + 0,3
Ortszeit Luftdruck NN (hPa) Tendenz (hPa in 3 Std.)
Sa, 24.08. 6:00 1022 - 0,6
Sa, 24.08. 5:40 1022 keine Meldung
Sa, 24.08. 5:30 1022 - 0,5
Sa, 24.08. 5:20 1022 keine Meldung
Sa, 24.08. 5:10 1022 keine Meldung
Sa, 24.08. 5:00 1022 - 0,6
Sa, 24.08. 4:50 1022 keine Meldung
Sa, 24.08. 4:30 1023 - 0,7
Sa, 24.08. 4:00 1022 - 1,1
Sa, 24.08. 3:30 1023 - 1,0
Sa, 24.08. 3:00 1023 - 0,9
Ortszeit Schneehöhe (cm)
Sa, 24.08. 2:00 -
Fr, 23.08. 20:00 -
Fr, 23.08. 14:00 -
Fr, 23.08. 8:00 -
Fr, 23.08. 2:00 -
Do, 22.08. 20:00 -
Do, 22.08. 14:00 -
Do, 22.08. 8:00 -
Ortszeit Schneehöhe (cm)
Sa, 24.08. 6:00 -
Sa, 24.08. 5:40 -
Sa, 24.08. 5:30 -
Sa, 24.08. 5:20 -
Sa, 24.08. 5:10 -
Sa, 24.08. 5:00 -
Sa, 24.08. 4:50 -
Sa, 24.08. 4:30 -
Sa, 24.08. 4:00 -
Sa, 24.08. 3:30 -
Sa, 24.08. 3:00 -
Link zu dieser Seite / Seite empfehlen

Das Wetter in ...